Location: Cutler
(25.6150°N, 80.3110°W)
Time: 21:24:53
(UTC-05:00)

Amateur Radio Satellites - All Passes

Search period start: 20 January 2018 20:54
Search period end: 21 January 2018 20:54
Location: Cutler, 25.6150°N, 80.3110°W

Satellite Date Start Highest point End Downlink Frequencies (MHz)
Time Altitude Azimuth
ISS 20 Jan 21:03:11 21:04:52 13° 320° (NW) 21:06:34 437.550
STRAND 1 20 Jan 21:03:17 21:05:57 14° 292° (WNW) 21:08:39 437.568
ZACube-1 20 Jan 21:06:42 21:07:23 10° 266° (W) 21:08:04 437.345
Max Valier Satellite 20 Jan 21:15:44 21:19:17 45° 76° (ENE) 21:22:52 145.860
AO-85 20 Jan 21:18:21 21:23:10 39° 62° (ENE) 21:28:09 145.980
TIGRISAT 20 Jan 21:30:31 21:34:46 34° 98° (E) 21:38:58 435.000
EO-88 20 Jan 21:35:01 21:38:34 52° 77° (ENE) 21:42:07 145.990 - 145.960
FO-29 20 Jan 21:35:07 21:38:44 20° 289° (WNW) 21:42:28 435.910
BEESAT 2 20 Jan 21:39:19 21:40:31 11° 252° (WSW) 21:41:42 435.950
UNISAT 6 20 Jan 21:45:26 21:50:04 58° 101° (E) 21:54:38 437.425
PRISM 20 Jan 22:02:48 22:04:49 13° 96° (E) 22:06:51 437.425
DELFI C3 20 Jan 22:09:14 22:11:55 18° 263° (W) 22:14:36 145.870
ESTCUBE 1 20 Jan 22:20:51 22:23:53 18° 71° (ENE) 22:26:53 437.505/2401.250
AIST 2D 20 Jan 22:40:38 22:42:46 15° 96° (E) 22:44:52 435.315
YUBILEINY 20 Jan 22:43:20 22:51:43 50° 90° (E) 23:00:05 435.215
LO-87 20 Jan 22:54:48 22:58:17 63° 77° (ENE) 23:01:49 145.935 - 145.965
AO-85 20 Jan 22:59:43 23:03:20 19° 251° (WSW) 23:07:00 145.980
TIGRISAT 20 Jan 23:08:12 23:11:05 16° 289° (WNW) 23:13:57 435.000
EO-79 20 Jan 23:13:05 23:14:32 11° 95° (E) 23:15:58 145.935-145.965
PRISM 20 Jan 23:36:30 23:40:01 29° 286° (WNW) 23:43:34 437.425
POLYITAN 1 20 Jan 23:45:50 23:49:41 32° 99° (E) 23:53:30 437.675
SPROUT 20 Jan 23:53:49 23:57:52 47° 76° (ENE) 00:01:56 437.525
ESTCUBE 1 20 Jan 23:56:30 00:00:23 28° 262° (W) 00:04:16 437.505/2401.250
VELOX 1 20 Jan 23:56:38 00:00:13 25° 73° (ENE) 00:03:49 145.980
NANOSAT C BR1 21 Jan 00:01:20 00:05:25 45° 100° (E) 00:09:29 145.865
AIST 2D 21 Jan 00:13:28 00:15:43 16° 287° (WNW) 00:17:58 435.315
QB50P2 21 Jan 00:15:08 00:19:25 85° 284° (WNW) 00:23:41 145.880/145.840
O/OREOS (USA 219) 21 Jan 00:15:08 00:19:39 80° 106° (ESE) 00:24:09 437.305
YUBILEINY 21 Jan 00:41:37 00:48:36 26° 283° (WNW) 00:55:38 435.215
DUCHIFAT 1 21 Jan 00:45:01 00:49:09 54° 285° (WNW) 00:53:17 145.980
EO-79 21 Jan 00:46:22 00:50:18 37° 285° (WNW) 00:54:13 145.935-145.965
Gurwin Techsat 1B 21 Jan 00:48:17 00:49:32 11° 95° (E) 00:50:45 435.225
Oscar 19 21 Jan 01:00:19 01:04:18 22° 97° (E) 01:08:14 437.125/150
NO-84 21 Jan 01:03:28 01:06:08 30° 51° (NE) 01:08:58 435.350 FM
AO-91 21 Jan 01:12:01 01:16:26 38° 100° (E) 01:21:13 145.960
POLYITAN 1 21 Jan 01:22:55 01:25:05 14° 289° (WNW) 01:27:15 437.675
FALCONSAT 3 21 Jan 01:29:22 01:31:11 13° 143° (SE) 01:33:00 435.103
VELOX 1 21 Jan 01:33:31 01:36:31 18° 263° (W) 01:39:33 145.980
UKube-1 21 Jan 01:36:43 01:40:41 38° 75° (ENE) 01:44:40 .
BUGSAT 1 21 Jan 01:46:32 01:50:37 48° 284° (WNW) 01:54:42 437.445
DX 1 21 Jan 01:48:10 01:52:29 79° 256° (WSW) 01:56:49 434.975-435.025
MOZHAYETS 4 21 Jan 01:50:48 01:53:02 14° 70° (ENE) 01:55:17
50 SAT 21 Jan 02:01:04 02:03:58 40° 260° (W) 02:06:53 437.505
Gurwin Techsat 1B 21 Jan 02:24:26 02:29:38 59° 285° (WNW) 02:34:51 435.225
Oscar 19 21 Jan 02:39:06 02:43:29 29° 288° (WNW) 02:47:50 437.125/150
AO-91 21 Jan 02:49:40 02:52:36 16° 287° (WNW) 02:55:40 145.960
ITUPSAT 1 21 Jan 02:54:52 02:59:22 43° 74° (ENE) 03:03:53 437.325
FALCONSAT 3 21 Jan 03:06:16 03:09:56 88° 153° (SSE) 03:13:37 435.103
UKube-1 21 Jan 03:15:26 03:16:43 11° 264° (W) 03:18:01 .
nSIGHT-1 21 Jan 03:23:28 03:24:57 13° 40° (NE) 03:26:26 .
MOZHAYETS 4 21 Jan 03:25:28 03:29:46 39° 261° (W) 03:34:06
AO-7 21 Jan 03:28:17 03:36:29 58° 104° (ESE) 03:44:37 .
CUBESAT XI-V 21 Jan 03:28:33 03:32:58 42° 75° (ENE) 03:37:24 437.345
BEESAT 21 Jan 03:34:18 03:38:58 60° 259° (WSW) 03:43:41 436.000
ISS 21 Jan 03:37:06 03:38:26 12° 39° (NE) 03:39:44 437.550
ITAMSAT 1 21 Jan 03:44:48 03:49:48 46° 101° (E) 03:54:47 435.822/435.867
ITUPSAT 1 21 Jan 04:35:16 04:37:15 12° 265° (W) 04:39:14 437.325
SO-50 21 Jan 04:39:17 04:43:32 48° 113° (ESE) 04:47:50 436.795
FALCONSAT 3 21 Jan 04:46:12 04:49:15 24° 346° (NNW) 04:52:19 435.103
KKS-1 21 Jan 04:53:28 04:57:45 51° 75° (ENE) 05:02:01 437.445
nSIGHT-1 21 Jan 04:58:16 05:01:10 33° 232° (SW) 05:04:04 .
CUBESAT XI-V 21 Jan 05:08:32 05:10:23 12° 265° (W) 05:12:15 437.345
STARS 21 Jan 05:09:39 05:13:16 26° 73° (ENE) 05:16:55 437.465
ISS 21 Jan 05:11:56 05:15:01 39° 232° (SW) 05:18:06 437.550
XW-2D 21 Jan 05:18:34 05:19:07 10° 95° (E) 05:19:38 145.860 - 145.880
CUTE-I 21 Jan 05:21:40 05:23:31 12° 95° (E) 05:25:23 437.470
AO-7 21 Jan 05:22:22 05:28:36 24° 297° (WNW) 05:34:50 .
M-CUBED/EXP-1 PRIME 21 Jan 05:22:50 05:26:03 60° 287° (WNW) 05:29:14 437.505
DOVE 4 21 Jan 05:23:44 05:28:05 52° 284° (WNW) 05:32:41 437.250
ITAMSAT 1 21 Jan 05:26:01 05:28:47 15° 292° (WNW) 05:31:34 435.822/435.867
XW-2B 21 Jan 05:34:17 05:36:49 17° 97° (E) 05:39:20 145.730 - 145.750
RS-15 21 Jan 05:40:05 05:42:12 11° 99° (E) 05:44:20 29.354- 29.394
LilacSat-2 21 Jan 06:01:38 06:05:18 51° 100° (E) 06:08:57 437.200
XW-2C 21 Jan 06:03:37 06:07:15 49° 100° (E) 06:10:52 145.795 - 145.815
SO-50 21 Jan 06:22:32 06:24:10 12° 306° (NW) 06:25:50 436.795
FALCONSAT 3 21 Jan 06:26:31 06:29:01 17° 2° (N) 06:31:31 435.103
SEEDS 21 Jan 06:29:52 06:31:36 12° 95° (E) 06:33:20 437.485
STRAND 1 21 Jan 06:30:31 06:34:47 28° 72° (ENE) 06:39:04 437.568
KAITUO 1B 21 Jan 06:37:35 06:41:15 74° 283° (WNW) 06:44:54 145.475/437.950
XW-2F 21 Jan 06:39:48 06:43:23 47° 284° (WNW) 06:46:56 145.980 - 146.000
CUTE 1.7 + AOD 2 21 Jan 06:40:58 06:44:47 34° 99° (E) 06:48:34 437.475
STARS 21 Jan 06:46:39 06:49:30 17° 263° (W) 06:52:21 437.465
NUDT-PHONESAT 21 Jan 06:48:15 06:51:49 54° 283° (WNW) 06:55:21 437.300
XW-2D 21 Jan 06:49:59 06:53:15 29° 285° (WNW) 06:56:30 145.860 - 145.880
CUBEBUG 2 21 Jan 06:55:14 06:59:32 33° 98° (E) 07:03:45 437.445
CUTE-I 21 Jan 06:58:32 07:03:43 55° 285° (WNW) 07:08:55 437.470
UWE-3 21 Jan 07:00:54 07:04:15 20° 96° (E) 07:07:32 435.000/436.395/437.385
HO-68 21 Jan 07:03:43 07:10:49 65° 103° (ESE) 07:17:54 435.675
XW-2B 21 Jan 07:08:12 07:10:47 18° 287° (WNW) 07:13:21 145.730 - 145.750
ZACube-1 21 Jan 07:24:20 07:27:17 17° 95° (E) 07:30:10 437.345
AO-73 21 Jan 07:30:53 07:33:52 18° 95° (E) 07:36:49 145.935
FO-29 21 Jan 07:35:34 07:42:40 62° 75° (ENE) 07:48:58 435.910
RS-15 21 Jan 07:40:40 07:52:51 74° 111° (ESE) 08:05:03 29.354- 29.394
AAUSAT CUBESAT 2 21 Jan 07:44:05 07:48:01 45° 100° (E) 07:51:57 437.432
Oscar 11 21 Jan 08:03:10 08:06:44 25° 97° (E) 08:10:16 .
SEEDS 21 Jan 08:03:34 08:07:15 32° 285° (WNW) 08:10:57 437.485
FALCONSAT 3 21 Jan 08:05:29 08:08:44 29° 17° (NNE) 08:11:57 435.103
STRAND 1 21 Jan 08:09:55 08:13:49 22° 263° (W) 08:17:46 437.568
JUGNU 21 Jan 08:13:30 08:17:45 21° 162° (SSE) 08:21:59 437.505
CUTE 1.7 + AOD 2 21 Jan 08:18:29 08:20:13 12° 289° (WNW) 08:21:57 437.475
TIGRISAT 21 Jan 08:24:07 08:24:53 10° 68° (ENE) 08:25:39 435.000
CUBEBUG 2 21 Jan 08:32:47 08:35:46 17° 289° (WNW) 08:38:43 437.445
UWE-3 21 Jan 08:36:42 08:40:34 26° 287° (WNW) 08:44:22 435.000/436.395/437.385
UNISAT 6 21 Jan 08:37:07 08:40:06 18° 71° (ENE) 08:43:08 437.425
XW-2A 21 Jan 08:37:55 08:40:48 27° 285° (WNW) 08:43:39 145.665 - 145.685
BEESAT 3 21 Jan 08:53:16 08:57:07 53° 113° (ESE) 09:01:00 437.485
HO-68 21 Jan 08:53:30 08:57:50 17° 296° (WNW) 09:02:11 435.675
ZACube-1 21 Jan 08:59:37 09:03:28 28° 287° (WNW) 09:07:14 437.345
AO-73 21 Jan 09:06:14 09:10:00 27° 287° (WNW) 09:13:42 145.935
YUBILEINY 21 Jan 09:06:37 09:11:07 15° 73° (ENE) 09:15:36 435.215
FO-29 21 Jan 09:23:27 09:27:39 16° 263° (W) 09:31:37 435.910
PCSat 21 Jan 09:26:35 09:31:59 85° 115° (ESE) 09:37:25 145.827
Oscar 11 21 Jan 09:39:44 09:42:36 18° 288° (WNW) 09:45:28 .
BEESAT 2 21 Jan 09:42:10 09:45:57 43° 113° (ESE) 09:49:46 435.950
FALCONSAT 3 21 Jan 09:44:18 09:47:55 61° 209° (SSW) 09:51:32 435.103
DELFI C3 21 Jan 09:52:20 09:56:15 78° 283° (WNW) 10:00:11 145.870
RS-15 21 Jan 09:56:19 10:06:12 28° 309° (NW) 10:16:07 29.354- 29.394
TIGRISAT 21 Jan 09:56:53 10:01:03 45° 261° (W) 10:05:20 435.000
JUGNU 21 Jan 10:01:00 10:06:22 38° 170° (S) 10:11:45 437.505
UNISAT 6 21 Jan 10:12:54 10:16:32 26° 263° (W) 10:20:15 437.425
PRISM 21 Jan 10:16:42 10:20:42 58° 76° (ENE) 10:24:40 437.425
SRMSAT 21 Jan 10:23:58 10:26:48 14° 159° (SSE) 10:29:39 437.500
Max Valier Satellite 21 Jan 10:27:02 10:30:26 36° 284° (WNW) 10:33:48 145.860
O/OREOS (USA 219) 21 Jan 10:33:33 10:37:43 38° 70° (ENE) 10:41:53 437.305
AIST 2D 21 Jan 10:38:06 10:41:25 39° 76° (ENE) 10:44:43 435.315
EO-88 21 Jan 10:44:51 10:48:08 33° 285° (WNW) 10:51:24 145.990 - 145.960
NANOSAT C BR1 21 Jan 10:47:33 10:48:58 12° 70° (ENE) 10:50:24 145.865
YUBILEINY 21 Jan 10:59:51 11:08:33 78° 267° (W) 11:17:12 435.215
QB50P2 21 Jan 10:59:58 11:03:19 23° 73° (ENE) 11:06:41 145.880/145.840
BEESAT 2 21 Jan 11:23:08 11:23:48 10° 305° (NW) 11:24:30 435.950
AO-85 21 Jan 11:25:14 11:29:03 80° 115° (ESE) 11:33:05 145.980
DUCHIFAT 1 21 Jan 11:28:24 11:32:10 34° 75° (ENE) 11:35:59 145.980
EO-79 21 Jan 11:29:53 11:33:58 51° 76° (ENE) 11:38:04 145.935-145.965
SPROUT 21 Jan 11:48:32 11:51:09 16° 96° (E) 11:53:45 437.525
JUGNU 21 Jan 11:49:30 11:55:07 49° 179° (S) 12:00:45 437.505
ESTCUBE 1 21 Jan 11:56:18 12:00:44 69° 284° (WNW) 12:05:10 437.505/2401.250
LO-87 21 Jan 12:02:42 12:05:54 29° 285° (WNW) 12:09:04 145.935 - 145.965
POLYITAN 1 21 Jan 12:04:58 12:09:04 51° 260° (W) 12:13:12 437.675
Oscar 19 21 Jan 12:10:17 12:13:05 15° 68° (ENE) 12:15:54 437.125/150
SRMSAT 21 Jan 12:10:26 12:15:33 30° 166° (SSE) 12:20:43 437.500
O/OREOS (USA 219) 21 Jan 12:15:06 12:16:41 12° 261° (W) 12:18:17 437.305
NANOSAT C BR1 21 Jan 12:20:22 12:24:15 37° 261° (W) 12:28:09 145.865
BUGSAT 1 21 Jan 12:27:53 12:31:33 34° 74° (ENE) 12:35:16 437.445
QB50P2 21 Jan 12:36:03 12:38:58 18° 264° (W) 12:41:53 145.880/145.840
DUCHIFAT 1 21 Jan 13:06:14 13:07:49 12° 265° (W) 13:09:25 145.980
SPROUT 21 Jan 13:23:17 13:26:56 28° 286° (WNW) 13:30:34 437.525
50 SAT 21 Jan 13:24:42 13:25:51 12° 96° (E) 13:26:59 437.505
VELOX 1 21 Jan 13:29:58 13:34:12 49° 285° (WNW) 13:38:27 145.980
UKube-1 21 Jan 13:33:24 13:35:17 13° 96° (E) 13:37:08 .
Gurwin Techsat 1B 21 Jan 13:36:59 13:42:17 84° 258° (WSW) 13:47:36 435.225
JUGNU 21 Jan 13:38:26 13:43:52 40° 190° (S) 13:49:19 437.505
AO-91 21 Jan 13:38:37 13:41:44 35° 261° (W) 13:44:52 145.960
DX 1 21 Jan 13:44:33 13:48:30 34° 99° (E) 13:52:26 434.975-435.025
Oscar 19 21 Jan 13:46:59 13:51:56 46° 260° (W) 13:56:55 437.125/150
SRMSAT 21 Jan 13:58:45 14:04:27 47° 175° (S) 14:10:10 437.500
BUGSAT 1 21 Jan 14:05:54 14:06:56 11° 265° (W) 14:07:58 437.445
AO-7 21 Jan 14:18:25 14:25:56 39° 67° (ENE) 14:33:29 .
ITAMSAT 1 21 Jan 14:55:00 14:59:29 31° 72° (ENE) 15:03:58 435.822/435.867
50 SAT 21 Jan 14:55:20 14:57:24 17° 287° (WNW) 14:59:27 437.505
SO-50 21 Jan 14:57:59 15:02:42 68° 64° (ENE) 15:07:28 436.795
ITUPSAT 1 21 Jan 15:04:04 15:07:49 22° 98° (E) 15:11:31 437.325
UKube-1 21 Jan 15:07:22 15:11:16 34° 286° (WNW) 15:15:10 .
DX 1 21 Jan 15:22:08 15:24:19 14° 290° (WNW) 15:26:30 434.975-435.025
JUGNU 21 Jan 15:28:05 15:32:31 22° 198° (SSW) 15:36:57 437.505
MOZHAYETS 4 21 Jan 15:28:13 15:32:51 88° 281° (W) 15:37:26
CUBESAT XI-V 21 Jan 15:33:59 15:37:22 20° 97° (E) 15:40:44 437.345
BEESAT 21 Jan 15:42:23 15:47:10 68° 102° (ESE) 15:51:54 436.000
SRMSAT 21 Jan 15:47:41 15:53:25 47° 185° (S) 15:59:09 437.500
M-CUBED/EXP-1 PRIME 21 Jan 15:59:36 16:03:44 38° 72° (ENE) 16:07:40 437.505
NO-84 21 Jan 16:10:55 16:14:11 51° 308° (NW) 16:17:14 435.350 FM
AO-7 21 Jan 16:11:07 16:18:30 35° 259° (W) 16:25:58 .
DOVE 4 21 Jan 16:21:05 16:25:25 58° 77° (ENE) 16:29:34 437.250
ITAMSAT 1 21 Jan 16:35:01 16:38:50 21° 263° (W) 16:42:41 435.822/435.867
ITUPSAT 1 21 Jan 16:41:33 16:45:27 25° 288° (WNW) 16:49:22 437.325
KKS-1 21 Jan 16:53:13 16:56:27 20° 97° (E) 16:59:40 437.445
RS-15 21 Jan 16:54:56 17:05:21 37° 55° (NE) 17:15:15 29.354- 29.394
KAITUO 1B 21 Jan 17:10:36 17:12:38 14° 72° (ENE) 17:14:40 145.475/437.950
CUBESAT XI-V 21 Jan 17:10:52 17:14:35 25° 287° (WNW) 17:18:17 437.345
XW-2F 21 Jan 17:12:40 17:15:35 21° 74° (ENE) 17:18:31 145.980 - 146.000
NUDT-PHONESAT 21 Jan 17:19:39 17:22:11 18° 73° (ENE) 17:24:43 437.300
XW-2D 21 Jan 17:22:24 17:25:53 34° 75° (ENE) 17:29:21 145.860 - 145.880
HO-68 21 Jan 17:25:13 17:30:11 21° 66° (ENE) 17:35:09 435.675
M-CUBED/EXP-1 PRIME 21 Jan 17:35:57 17:38:00 13° 259° (W) 17:40:01 437.505
SRMSAT 21 Jan 17:37:06 17:42:18 31° 194° (SSW) 17:47:32 437.500
XW-2B 21 Jan 17:39:42 17:43:29 59° 77° (ENE) 17:47:14 145.730 - 145.750
LilacSat-2 21 Jan 18:08:59 18:12:39 42° 261° (W) 18:16:20 437.200
XW-2C 21 Jan 18:10:11 18:13:51 45° 261° (W) 18:17:32 145.795 - 145.815
CUTE-I 21 Jan 18:11:49 18:17:08 77° 257° (WSW) 18:22:27 437.470
nSIGHT-1 21 Jan 18:18:02 18:19:47 14° 125° (SE) 18:21:33 .
PCSat 21 Jan 18:25:11 18:27:31 13° 56° (NE) 18:29:51 145.827
AAUSAT CUBESAT 2 21 Jan 18:28:59 18:29:39 10° 70° (ENE) 18:30:19 437.432
KKS-1 21 Jan 18:29:14 18:32:51 24° 288° (WNW) 18:36:27 437.445
ISS 21 Jan 18:34:26 18:36:14 14° 125° (SE) 18:38:01 437.550
STARS 21 Jan 18:42:17 18:46:33 48° 285° (WNW) 18:50:48 437.465
KAITUO 1B 21 Jan 18:43:18 18:46:19 23° 262° (W) 18:49:21 145.475/437.950
SEEDS 21 Jan 18:46:06 18:50:14 54° 77° (ENE) 18:54:21 437.485
XW-2F 21 Jan 18:47:13 18:49:32 15° 264° (W) 18:51:51 145.980 - 146.000
STRAND 1 21 Jan 18:49:36 18:53:15 19° 97° (E) 18:56:53 437.568
NUDT-PHONESAT 21 Jan 18:53:12 18:55:48 18° 263° (W) 18:58:25 437.300
BEESAT 3 21 Jan 18:54:39 18:58:19 40° 62° (ENE) 19:01:54 437.485
CUTE 1.7 + AOD 2 21 Jan 19:00:15 19:04:24 50° 260° (W) 19:08:33 437.475
XW-2A 21 Jan 19:00:48 19:03:22 20° 74° (ENE) 19:05:55 145.665 - 145.685
RS-15 21 Jan 19:07:03 19:17:44 49° 252° (WSW) 19:28:02 29.354- 29.394
HO-68 21 Jan 19:10:22 19:17:21 55° 258° (WSW) 19:24:20 435.675
CUBEBUG 2 21 Jan 19:20:51 19:24:58 48° 260° (W) 19:29:16 437.445
UWE-3 21 Jan 19:24:09 19:28:29 90° 281° (W) 19:32:59 435.000/436.395/437.385
SRMSAT 21 Jan 19:28:00 19:31:05 14° 201° (SSW) 19:34:09 437.500
BEESAT 2 21 Jan 19:44:41 19:48:21 35° 61° (ENE) 19:51:57 435.950
ZACube-1 21 Jan 19:45:50 19:50:13 79° 77° (ENE) 19:54:43 437.345
AO-73 21 Jan 19:52:03 19:56:26 81° 79° (E) 20:00:56 145.935
nSIGHT-1 21 Jan 19:53:03 19:55:43 25° 316° (NW) 19:58:24 .
AAUSAT CUBESAT 2 21 Jan 20:00:47 20:04:39 39° 261° (W) 20:08:32 437.432
PCSat 21 Jan 20:05:54 20:11:14 62° 250° (WSW) 20:16:33 145.827
AO-85 21 Jan 20:06:33 20:07:24 10° 54° (NE) 20:08:14 145.980
ISS 21 Jan 20:09:39 20:12:28 27° 316° (NW) 20:15:17 437.550
Oscar 11 21 Jan 20:24:31 20:28:50 66° 260° (W) 20:33:10 .
STRAND 1 21 Jan 20:27:47 20:32:21 33° 287° (WNW) 20:36:55 437.568
DELFI C3 21 Jan 20:30:18 20:32:54 17° 73° (ENE) 20:35:30 145.870
XW-2A 21 Jan 20:34:23 20:35:54 13° 264° (W) 20:37:27 145.665 - 145.685
FO-29 21 Jan 20:38:43 20:43:53 74° 284° (WNW) 20:49:20 435.910
